Simultaneous Nadir Overpasses (SNOs) Predictions

Prediction of SNOs between METOP-B and TERRA Satellite Orbit:

Table of predicted SNOs for the next 14.0 days since TLE Epoch: 4/4/2015
Index Date (METOP-B) Time (METOP-B) Lat,Lon (METOP-B) SZA (METOP-B ) Date (TERRA) Time (TERRA) Lat,Lon (TERRA) SZA (TERRA ) Distance(km) Time Diff (sec)
1 04/05/2015 23:02:52 -81.29, 61.13 102.25 04/05/2015 23:03:50 -81.29, 61.29 102.20 2.59 58
2 04/05/2015 23:53:31 81.30,-130.95 77.82 04/05/2015 23:53:16 81.30,-130.93 77.81 0.25 15
3 04/08/2015 18:37:15 -81.29, 127.60 103.27 04/08/2015 18:38:04 -81.29, 127.69 103.24 1.48 49
4 04/08/2015 19:27:54 81.30, -64.52 76.79 04/08/2015 19:27:30 81.30, -64.57 76.77 0.96 24
5 04/11/2015 14:11:37 -81.30,-165.62 104.24 04/11/2015 14:12:17 -81.30,-165.76 104.24 2.36 40
6 04/11/2015 15:02:17 81.30, 1.83 75.77 04/11/2015 15:01:43 81.30, 1.95 75.76 1.96 34
7 04/14/2015 09:45:59 -81.30, -99.32 105.25 04/14/2015 09:46:29 -81.29, -99.44 105.26 2.24 30
8 04/14/2015 10:36:38 81.30, 68.49 74.80 04/14/2015 10:35:54 81.31, 68.61 74.80 2.20 44
9 04/17/2015 05:20:22 -81.29, -33.10 106.25 04/17/2015 05:20:41 -81.29, -32.97 106.23 2.13 19




NCC Satellite Simultaneous Nadir Overpasses (SNOs) Prediction Service
